Regional Weather Roundup
Issued by NWS Wakefield, VA

Home | Current Version | Previous Version | Text Only | Print | Product List | Glossary Off
Versions: 1 2 3 4 5 6 7 8 9 10 11 12 13 14 15 16 17 18 19 20 21 22 23 24 25 26 27

000
ASUS41 KAKQ 282115
RWRAKQ

REGIONAL WEATHER ROUNDUP
NATIONAL WEATHER SERVICE WAKEFIELD VA
500 PM EDT WED SEP 28 2016

Note: "fair" indicates few or no clouds below 12,000 feet with no
significant weather and/or obstructions to visibility. * = Denotes
station may not report precipitation (e.g., rain,snow,etc.),
thunder or fog.

VAZ042-051-052>054-056-282200-
NORTHERN VIRGINIA

CITY           SKY/WX    TMP DP  RH WIND       PRES   REMARKS
WASH NATIONAL  CLOUDY    70  68  93 NE8       30.00R
DULLES         LGT RAIN  66  64  93 NE7       29.99F FOG
FORT BELVOIR   CLOUDY    68  66  94 VRB3      29.99R
QUANTICO       TSTM      70  67  90 E12       29.98S
FREDERICKSBRG* DRIZZLE   69  69 100 NE8       29.96R
STAFFORD*      TSTM      67  67  99 E5        30.01R
WARRENTON      CLOUDY    68  63  83 SE3       30.00R THUNDER
CULPEPER*      CLOUDY    67  66  98 CALM      29.99R
MANASSAS*      CLOUDY    68  68 100 NE6       29.98F
LEESBURG*      LGT RAIN  64  64 100 NE6       30.01S
WINCHESTER     LGT RAIN  64  61  88 NE5       30.01R
FRONT ROYAL*   CLOUDY    64  63  94 E6        29.99S
LURAY*         CLOUDY    68  64  88 N8        29.98S
$$

VAZ048-049-060>072-079>083-282200-
CENTRAL AND SOUTH CENTRAL VIRGINIA

CITY           SKY/WX    TMP DP  RH WIND       PRES   REMARKS
RICHMOND       RAIN      74  71  91 E12G23    29.91S
CHESTERFIELD*  MOCLDY    77  61  57 SE6       29.93R
PETERSBURG*    PTSUNNY   82  60  48 SE6       29.91F
HANOVER        NOT AVBL
TAPPAHANNOCK*  CLOUDY    72  72 100 E9        29.94F
QUINTON*       CLOUDY    73  71  94 MISG      29.92S
CHARLOTTSVILLE CLOUDY    67  63  87 NE10      29.97S HAZE
GORDONSVILLE*  CLOUDY    66  64  94 NE6       29.96S FOG
ORANGE*          N/A     64  64 100 CALM      29.98F FOG
LOUISA*        CLOUDY    72  70  94 NE6       29.95S
BUMPASS*       MOCLDY    69  69 100 NW3       29.95S
FARMVILLE*     CLOUDY    73  71  94 N8        29.93R
CREWE*         CLOUDY    75  75 100 CALM      29.91S
FORT PICKETT*  FAIR      80  68  68 S5        29.91S
CHASE CITY*    CLOUDY    76  74  94 CALM      29.90F
CLARKSVILLE*   MOCLDY    81  72  74 E3        29.89F
SOUTH HILL*    CLOUDY    80  72  75 SE5       29.96F
LAWRENCEVILLE* MOCLDY    81  70  71 S5        29.91F
EMPORIA*       CLOUDY    79  72  78 SE6       29.93S
$$

VAZ088>098-282200-
SOUTHEAST VIRGINIA

CITY           SKY/WX    TMP DP  RH WIND       PRES   REMARKS
NORFOLK        CLOUDY    77  68  73 VRB7      29.96R
VIRGINIA BEACH PTSUNNY   77  68  73 SE13G20   29.96R
NORFOLK NAVAL  CLOUDY    77  67  71 SE10      29.97R THUNDER
WEST POINT*    MOSUNNY   75  69  79 E15       29.94F
SALUDA*        MOCLDY    75  70  84 SE9G18    29.95S
NEWPORT NEWS   CLOUDY    74  69  85 SE12G18   29.96R
LANGLEY AFB    CLOUDY    76  69  77 SE8       29.96R
FORT EUSTIS    PTSUNNY   72  70  94 E7        29.93R
WILLIAMSBURG*  MOSUNNY   75  72  88 SE10G17   29.95R
HR EXEC AP*    MOCLDY    75  70  83 E7        29.97R
FRANKLIN*      CLOUDY    76  73  88 E5        29.93S
US460-WAKEFLD  LGT RAIN  74  71  91 MISG      29.94R FOG
$$

VAZ020-022-025-037-045-282200-
WEST CENTRAL AND SOUTHWEST VIRGINIA

CITY           SKY/WX    TMP DP  RH WIND       PRES   REMARKS
STAUNTON*      CLOUDY    69  62  80 NE9       29.98R
WAYNESBORO*    CLOUDY    68  63  84 SE5       29.97S
HOT SPRINGS VA CLOUDY    67  60  78 SE8       30.01S
LYNCHBURG      CLOUDY    75  67  76 SE6       29.94R
DANVILLE       CLOUDY    68  66  93 E3        29.92R
SOUTH BOSTON*  CLOUDY    69  67  92 W5        29.92R
MARTINSVILLE   CLOUDY    75  68  78 SE7       29.93R
ROANOKE        TSTM      67  64  90 NE10      29.94R
BLACKSBURG     MOSUNNY   69  63  81 E5        29.98R
DUBLIN*        MOSUNNY   72  67  84 E6        29.95R
MARION*        SUNNY     76  51  42 SW7       29.96S
HILLSVILLE*    MOSUNNY   72  64  74 S7        29.95R
RICHLANDS*     FAIR      75  45  33 SW9       29.94S
WISE*          SUNNY     73  30  20 S8        29.95F
ABINGDON*      SUNNY     79  41  26 W7        29.92S
$$

MDZ021>025-VAZ099-100-282200-
SOUTHERN MARYLAND AND THE DELMARVA PENINSULA

CITY           SKY/WX    TMP DP  RH WIND       PRES   REMARKS
PATUXENT RIVER TSTM      71  67  87 SE14      29.97R
BAY BRIDGE APT CLOUDY    72  66  83 MISG      30.01R
LEONARDTOWN    CLOUDY    68  66  94 NE6       30.01R VSB 1
DOVER          CLOUDY    70  70 100 E18       30.02R
GEORGETOWN     CLOUDY    71  67  87 E9        30.02R
EASTON         PTSUNNY   72  66  83 SE7       30.03S
CAMBRIDGE      CLOUDY    70  66  88 E8        29.99R
SALISBURY      PTSUNNY   71  68  90 E8        30.00S
OCEAN CITY     MOSUNNY   73  68  84 E13G23    29.99S
WALLOPS ISLAND PTSUNNY   74  70  87 E14       29.99F
ACCOMACK*      CLOUDY    74  68  81 E7G17     29.98R
$$

NCZ012>017-030>032-282200-
NORTH CENTRAL AND EASTERN NORTH CAROLINA

CITY           SKY/WX    TMP DP  RH WIND       PRES   REMARKS
ROANOKE RAPIDS LGT RAIN  73  70  88 SW9G24    29.93R
RALEIGH        TSTM      78  72  81 S12       29.92R
ELIZABETH CITY SUNNY     79  71  76 SE13      29.97R
AHOSKIE*       CLOUDY    78  72  80 S7        29.93R
EDENTON*       SUNNY     81  71  70 E9G18     29.95S
CURRITUCK*     NOT AVBL
KILL DEVIL HLS SUNNY     82  74  77 E6        29.96S
MANTEO         SUNNY     78  70  75 SE12      29.97F
CAPE HATTERAS  SUNNY     80  71  74 SE8       29.98S
TARBORO*       MOCLDY    79  72  79 CALM      29.93S
GOLDSBORO      MOSUNNY   86  72  62 S7        29.90S
WASHINGTON     MOSUNNY   83  71  66 SE9       29.93S
GREENVILLE     PTSUNNY   86  72  62 S7        29.95R
NEW BERN       SUNNY     84  69  60 S10       29.95S
WILMINGTON     CLOUDY    83  71  67 SE9       29.93S
$$

VAZ048-282200-
ELSEWHERE

CITY           SKY/WX    TMP DP  RH WIND       PRES   REMARKS
HARRISBURG PA  CLOUDY    67  64  90 E8        30.04F
BALTIMORE      CLOUDY    68  65  90 E13       30.00S
ANNAPOLIS        N/A    N/A N/A N/A MISG      30.00R
ANDREWS AFB    RAIN      68  66  94 E13       29.99R FOG
PHILADELPHIA   CLOUDY    67  62  84 E21G30    30.07R
HENDERSON NC   PTSUNNY   79  68  69 SE7       29.91S
GREENSBORO     TSTM      70  66  87 W18G38    29.92R FOG
ROCKY MOUNT    TSTM      72  72 100 S5        29.93F FOG
$$

VAZ100-282200-
MARINE

STATION/POSITION TIME  TEMP    WIND        PRES    WAVE   SWELL
                       AIR SEA DIR/SP/G            HT/PER HT/PER
                 (UTC) (F)     (DEG/KT/KT) (MB)    (FT/S) (FT/S)
BRANDYWINE LGT   2048   70      90/ 19/ 23   N/A
CAPE MAY NJ      2048   70 72   70/ 10/ 17 1016.2R
LEWES DE         2048   71 71   90/ 18/ 23 1015.9F
OCEAN-CITY-INLET 2048   72 73  100/  9/ 15 1015.9F
WACHAPREAGUE VA  2048   74 75   70/ 12/ 15 1015.2F
THOMAS POINT MD  2100   71 74   90/ 15/ 17 1017.0R
GOOSES REEF MD   2050   71     100/ 12/ 16 1015.7R
COVE POINT MD    2048   71     130/ 15/ 20 1015.6R
SOLOMONS ISLAND  2048   71 75  110/ 14/ 19   N/A
BISHOPS HEAD MD  2048   71 71   90/ 10/ 13 1015.3S
PINEY POINT MD   2048          130/ 17/ 19   N/A
POTOMAC MD       2050   73     120/ 17/ 19 1013.8F
CAMBRIDGE MD     2048   71 72   80/ 12/ 14 1014.7R
LEWISETTA VA     2048   73 73  110/ 17/ 20 1014.2R
RAPPAHANNOCK LGT 2048          100/ 14/ 15 1015.4R
STINGRAY PT      2050   76      70/ 16/ 19 1014.9F
YORK RVR RNG VA  2048   75     130/ 19/ 22 1013.9R
YORKTOWN VA      2048   75 76  130/ 13/ 17 1014.2R
JAMESTOWN VA     2050   76     100/ 12/ 16   N/A
DOMINION TERM VA 2048   75     150/ 14/ 15 1014.3R
KIPTOPEKE VA     2048      76  120/ 10/ 17   N/A
CHES BAY BRIDGE  2048   76 76  110/  9/ 15 1014.5R
CAPE HENRY VA    2048   76     120/ 14/ 18   N/A
WILLOUBY STN VA  2048   76     120/  9/ 11   N/A
CAPE HENRY BUOY  2042      76                N/A     3/ 7
1ST LANDING BUOY 2050   76     150/ 16/ 17 1014.2F
CAPE CHARLES BUO 2026      77                N/A     4/ 7   2/11
OFFSHORE WE BUOY 2021      76                N/A     3/ 6   2/11
64NM E OF VA BCH 2050   77 76   80/  6/  6 1014.9F   4/ 7   3/ 7
DUCK PIER NC     2048   77 77  120/ 11/ 12 1014.4F
44056 DUCK FRF   2041      77                N/A     3/ 7   2/11
OREGON INLET NC  2048   78 79  100/  6/ 10 1014.8F
HATTERAS NC      2048   78 78  110/  8/ 10 1014.9S
DIAMOND SHLS NC  2050   78 84   50/  6/  8 1015.0F   3/ 8   3/ 8
CAPE LOOKOUT NC  2000   80     130/  7/  7 1014.6F
$$




USA.gov is the U.S. government's official web portal to all federal, state and local government web resources and services.